User: anonymous   Login
Location: Unspecified
(51.0000°N, 12.0000°E)
Time: 16:14:53
(UTC+02:00)
Language:

XW-2F - Orbit

View from above orbital plane
View from above orbital plane
View from above satellite
View from above satellite

Ground track
Ground track

The orbit data is extracted from the following two-line orbital elements,

1 40910U 15049M   18267.84482255 +.00001129 +00000-0 +60844-4 0  9994
2 40910 097.4600 270.7157 0016167 042.1951 318.0523 15.16738703166561
Epoch (UTC): 24 September 2018 20:16:32
Eccentricity: 0.0016167
inclination: 97.4600°
perigee height: 504 km
apogee height: 527 km
right ascension of ascending node: 270.7157°
argument of perigee: 42.1951°
revolutions per day: 15.16738703
mean anomaly at epoch: 318.0523°
orbit number at epoch: 16656

The dashed part of the orbit path shows where the satellite is in the earth's shadow,  

DLR